User: anonymous   Login
Location: Angwan Shehu
(11.2514°N, 7.4613°E)
Time: 19:46:18
(UTC+00:00)
Language:

Explorer 7 - Orbit

View from above orbital plane
View from above orbital plane
View from above satellite
View from above satellite

Ground track
Ground track

The orbit data is extracted from the following two-line orbital elements,

1 00022U 59009A   21107.57325525  .00000534  00000-0  62289-4 0  9995
2 00022  50.2831 114.7836 0138797 340.8717  18.7048 14.95488014515878
Epoch (UTC): 17 April 2021 13:45:29
Eccentricity: 0.0138797
inclination: 50.2831°
perigee height: 484 km
apogee height: 677 km
right ascension of ascending node: 114.7836°
argument of perigee: 340.8717°
revolutions per day: 14.95488014
mean anomaly at epoch: 18.7048°
orbit number at epoch: 51587

The dashed part of the orbit path shows where the satellite is in the earth's shadow,  

DLR